N8TZ Weather Reports


time (UTC)temp
C
wind
direction
speed
KPH
gust
KPH
rain 1hr
cm
rain 24hr
cm
rain mn
cm
humidity
%
barometer
mb
20260510153454 15 0 4.8 9.7 0.00 0.03 0.00 83 1013.0
20260510152954 14 0 6.4 9.7 0.00 0.03 0.00 84 1013.1
20260510152454 14 336 3.2 8.0 0.00 0.03 0.00 83 1013.1
20260510151954 15 6 3.2 4.8 0.00 0.03 0.00 85 1013.0
20260510151454 14 7 1.6 6.4 0.00 0.03 0.00 86 1013.1
20260510150955 14 4 1.6 6.4 0.00 0.03 0.00 86 1013.2
20260510150454 14 353 1.6 4.8 0.00 0.03 0.00 86 1013.1
20260510145954 14 353 1.6 6.4 0.00 0.03 0.00 87 1013.1
20260510145452 13 353 1.6 6.4 0.00 0.03 0.00 86 1013.1
20260510144951 14 357 3.2 6.4 0.00 0.03 0.00 87 1013.2
20260510144452 14 357 3.2 6.4 0.00 0.03 0.00 86 1013.1
20260510144221 14 353 1.6 4.8 0.00 0.03 0.00 87 1013.0
20260510143453 13 353 0.0 4.8 0.00 0.03 0.00 86 1012.9
20260510143221 14 353 1.6 8.0 0.00 0.03 0.00 85 1012.9
20260510142454 14 353 3.2 8.0 0.00 0.03 0.00 85 1012.6
20260510141454 14 10 1.6 6.4 0.00 0.03 0.00 85 1012.3
20260510141214 14 11 3.2 4.8 0.00 0.03 0.00 84 1012.2
20260510140454 14 11 1.6 6.4 0.00 0.03 0.00 85 1012.1
20260510140214 14 13 3.2 6.4 0.00 0.03 0.00 85 1012.1
20260510135453 14 0 3.2 8.0 0.00 0.03 0.00 86 1012.1
20260510134953 14 0 4.8 8.0 0.00 0.03 0.00 86 1012.1
20260510134452 14 0 1.6 8.0 0.00 0.03 0.00 86 1012.1
20260510134214 14 0 3.2 9.7 0.00 0.05 0.00 86 1012.1
20260510133452 14 0 6.4 11.3 0.00 0.05 0.00 85 1012.2
20260510132952 14 350 6.4 11.3 0.00 0.05 0.00 85 1012.1
20260510132453 14 323 3.2 6.4 0.00 0.05 0.00 86 1012.0
20260510131953 14 357 0.0 4.8 0.00 0.05 0.00 87 1011.8
20260510131452 13 357 0.0 4.8 0.00 0.05 0.00 86 1011.7
20260510130952 13 355 0.0 4.8 0.00 0.05 0.00 87 1011.7
20260510130451 13 355 0.0 4.8 0.00 0.08 0.00 87 1011.6
20260510130215 13 354 3.2 6.4 0.00 0.08 0.00 87 1011.7
20260510125453 13 357 1.6 8.0 0.00 0.08 0.00 87 1011.8
20260510124952 13 355 3.2 8.0 0.00 0.08 0.00 87 1011.5
20260510124452 13 347 4.8 8.0 0.00 0.08 0.00 87 1011.5
20260510123951 13 299 0.0 4.8 0.00 0.10 0.00 88 1011.6
20260510123452 13 299 3.2 4.8 0.00 0.10 0.00 88 1011.5
20260510122951 13 293 0.0 6.4 0.00 0.13 0.00 88 1011.4
20260510122451 13 289 3.2 9.7 0.00 0.13 0.00 88 1011.5
20260510121951 13 290 4.8 9.7 0.00 0.13 0.00 88 1011.4
20260510121452 13 258 3.2 6.4 0.00 0.15 0.00 89 1011.2
20260510120951 13 220 1.6 6.4 0.00 0.15 0.00 89 1011.2
20260510120712 13 217 1.6 4.8 0.00 0.18 0.00 89 1011.1
20260510115451 13 217 3.2 8.0 0.00 0.20 0.00 89 1010.9
20260510114951 13 217 4.8 8.0 0.00 0.23 0.00 90 1010.8
20260510114709 13 216 3.2 6.4 0.00 0.25 0.00 91 1010.7
20260510113951 12 216 3.2 6.4 0.00 0.25 0.00 92 1010.5
20260510113707 12 216 3.2 6.4 0.00 0.28 0.00 92 1010.6
20260510112950 12 216 1.6 6.4 0.00 0.28 0.00 92 1010.5
20260510112451 12 216 3.2 4.8 0.00 0.30 0.00 92 1010.4
20260510112213 12 216 1.6 3.2 0.00 0.30 0.00 92 1010.1
20260510111451 12 216 1.6 3.2 0.00 0.30 0.00 92 1009.8
20260510111217 11 216 0.0 3.2 0.00 0.30 0.00 92 1009.8
20260510105950 11 216 3.2 4.8 0.00 0.33 0.00 92 1009.7
20260510105449 11 216 3.2 4.8 0.00 0.33 0.00 92 1009.6
20260510105218 11 216 1.6 4.8 0.00 0.33 0.00 92 1009.4
20260510104449 11 216 1.6 4.8 0.00 0.33 0.00 91 1009.5
20260510104217 11 216 3.2 8.0 0.00 0.36 0.00 91 1009.3
20260510103449 11 216 4.8 8.0 0.00 0.36 0.00 91 1009.2
20260510103212 11 216 3.2 8.0 0.00 0.36 0.00 91 1009.4
20260510102449 11 216 6.4 8.0 0.00 0.36 0.00 91 1009.3
20260510101949 11 217 6.4 8.0 0.00 0.36 0.00 91 1009.2
20260510101450 11 217 3.2 6.4 0.00 0.38 0.00 91 1009.1
20260510100949 11 217 4.8 8.0 0.00 0.38 0.00 90 1009.1
20260510100710 11 217 4.8 8.0 0.00 0.38 0.00 90 1008.9
20260510095949 11 217 3.2 6.4 0.00 0.38 0.00 89 1008.7
20260510095449 11 217 4.8 6.4 0.00 0.38 0.00 90 1008.7
20260510094948 11 217 4.8 8.0 0.00 0.38 0.00 89 1008.3
20260510094449 12 217 4.8 8.0 0.00 0.41 0.00 89 1008.6
20260510093949 12 219 3.2 6.4 0.00 0.41 0.00 89 1008.2
20260510093711 12 219 4.8 6.4 0.00 0.41 0.00 89 1008.3
20260510092949 12 219 3.2 6.4 0.00 0.41 0.00 88 1008.2
20260510091948 12 219 4.8 8.0 0.00 0.43 0.00 87 1008.2
20260510091448 12 221 4.8 8.0 0.00 0.43 0.00 87 1008.0
20260510090947 12 223 4.8 6.4 0.00 0.46 0.00 87 1007.9
20260510090448 12 227 1.6 4.8 0.00 0.46 0.00 86 1008.0
20260510085948 12 227 3.2 4.8 0.00 0.46 0.00 86 1008.1
20260510085448 13 227 3.2 6.4 0.00 0.48 0.00 86 1008.0
20260510084949 13 227 3.2 6.4 0.00 0.48 0.00 85 1008.0
20260510084448 13 227 3.2 8.0 0.00 0.48 0.00 85 1007.9
20260510083948 13 227 4.8 8.0 0.00 0.48 0.00 85 1008.0
20260510083447 13 227 6.4 8.0 0.00 0.51 0.00 85 1008.0
20260510082948 13 230 4.8 8.0 0.00 0.51 0.00 84 1008.1
20260510082706 13 233 4.8 8.0 0.00 0.51 0.00 84 1008.1
20260510082213 13 233 4.8 6.4 0.00 0.51 0.00 84 1008.0
20260510081447 13 233 3.2 4.8 0.00 0.51 0.00 83 1008.1
20260510080947 13 233 3.2 8.0 0.00 0.53 0.00 83 1008.2
20260510080447 13 233 4.8 8.0 0.00 0.53 0.00 83 1008.1
20260510075947 13 251 4.8 8.0 0.00 0.53 0.00 83 1008.1
20260510075447 14 230 4.8 8.0 0.00 0.53 0.00 83 1008.0
20260510074947 14 230 4.8 8.0 0.00 0.56 0.00 82 1007.9
20260510074445 14 227 4.8 9.7 0.00 0.56 0.00 82 1007.9
20260510073946 14 233 6.4 17.7 0.00 0.56 0.00 82 1007.9
20260510073447 14 234 8.0 17.7 0.00 0.56 0.00 82 1007.8
20260510072947 14 231 9.7 17.7 0.00 0.56 0.00 82 1007.8
20260510072446 14 237 9.7 17.7 0.00 0.56 0.00 82 1007.7
20260510071946 14 216 9.7 16.1 0.00 0.56 0.00 82 1007.7
20260510071447 14 221 8.0 14.5 0.00 0.58 0.00 83 1007.8
20260510070946 14 224 9.7 16.1 0.00 0.58 0.00 83 1007.8
20260510070446 14 234 6.4 16.1 0.00 0.58 0.00 82 1007.8
20260510065947 14 230 8.0 16.1 0.00 0.58 0.00 82 1007.8
20260510065446 14 235 11.3 17.7 0.00 0.58 0.00 82 1007.8
20260510064945 14 226 12.9 19.3 0.00 0.58 0.00 82 1007.6
20260510064446 14 231 11.3 19.3 0.00 0.58 0.00 83 1007.6
20260510063946 14 235 9.7 14.5 0.00 0.58 0.00 82 1007.6
20260510063447 14 206 8.0 16.1 0.00 0.58 0.00 82 1007.7
20260510062945 14 228 9.7 16.1 0.00 0.58 0.00 82 1007.7
20260510062446 14 217 9.7 16.1 0.00 0.58 0.00 82 1007.8
20260510062205 14 230 8.0 16.1 0.00 0.58 0.00 81 1007.8
20260510061445 14 231 9.7 16.1 0.00 0.58 0.00 81 1007.8
20260510060945 14 230 6.4 14.5 0.00 0.58 0.00 81 1007.7
20260510060445 14 213 8.0 14.5 0.00 0.58 0.00 81 1007.7
20260510060211 14 231 8.0 16.1 0.00 0.58 0.00 81 1007.7
20260510055705 15 231 9.7 17.7 0.00 0.58 0.00 81 1007.7
20260510054945 15 244 12.9 17.7 0.00 0.58 0.00 81 1007.7
20260510054445 15 216 11.3 20.9 0.00 0.58 0.00 80 1007.7
20260510053944 15 240 12.9 20.9 0.00 0.58 0.00 80 1007.7
20260510053444 15 247 11.3 16.1 0.00 0.58 0.00 80 1007.7
20260510052945 15 243 9.7 22.5 0.00 0.58 0.00 80 1007.8
20260510052445 15 216 12.9 22.5 0.00 0.58 0.00 80 1007.7
20260510051944 15 235 11.3 19.3 0.00 0.58 0.00 80 1007.7
20260510051445 15 224 11.3 19.3 0.00 0.58 0.00 80 1007.8
20260510051213 15 210 11.3 24.1 0.00 0.58 0.00 80 1007.8
20260510050444 15 244 12.9 24.1 0.00 0.58 0.00 79 1007.7
20260510045944 15 228 12.9 20.9 0.00 0.58 0.00 79 1007.6
20260510045444 15 216 11.3 27.4 0.00 0.58 0.00 79 1007.6
20260510044945 15 234 16.1 27.4 0.00 0.58 0.00 79 1007.6
20260510044703 15 231 14.5 22.5 0.00 0.58 0.00 79 1007.6
20260510043944 15 230 12.9 17.7 0.00 0.58 0.00 79 1007.6
20260510043443 15 213 9.7 20.9 0.00 0.58 0.00 79 1007.6
20260510042943 15 244 14.5 20.9 0.00 0.58 0.00 79 1007.6
20260510042444 15 212 11.3 22.5 0.00 0.58 0.00 79 1007.5
20260510041943 15 209 14.5 22.5 0.00 0.58 0.00 79 1007.5
20260510041443 15 241 11.3 22.5 0.00 0.58 0.00 79 1007.5
20260510040943 15 217 14.5 19.3 0.00 0.58 0.00 79 1007.6
20260510040443 15 223 11.3 17.7 0.00 0.58 0.00 79 1007.5
20260510035943 15 227 11.3 17.7 0.00 0.58 0.58 79 1007.4
20260510035443 15 226 8.0 19.3 0.00 0.58 0.58 79 1007.5
20260510034942 15 212 11.3 19.3 0.00 0.58 0.58 79 1007.5
20260510034442 15 213 8.0 16.1 0.00 0.58 0.58 79 1007.4
20260510033943 15 220 9.7 17.7 0.00 0.58 0.58 79 1007.4
20260510033443 15 212 9.7 17.7 0.00 0.58 0.58 78 1007.4
20260510032943 15 214 8.0 14.5 0.00 0.58 0.58 78 1007.4
20260510032442 15 213 9.7 14.5 0.00 0.58 0.58 78 1007.4
20260510031942 15 219 8.0 16.1 0.00 0.58 0.58 78 1007.3
20260510031700 15 226 9.7 16.1 0.00 0.58 0.58 77 1007.2
20260510030942 15 209 6.4 11.3 0.00 0.58 0.58 77 1007.2
20260510030442 15 210 9.7 14.5 0.00 0.58 0.58 76 1007.2
20260510025942 15 216 9.7 16.1 0.00 0.58 0.58 76 1007.3
20260510025710 15 209 9.7 16.1 0.00 0.58 0.58 76 1007.2
20260510024941 15 210 8.0 20.9 0.00 0.58 0.58 76 1007.1
20260510024442 15 217 8.0 20.9 0.00 0.58 0.58 75 1007.1
20260510023942 15 217 9.7 16.1 0.00 0.58 0.58 76 1007.2
20260510023442 15 212 11.3 16.1 0.00 0.58 0.58 76 1007.1
20260510022941 15 212 9.7 16.1 0.00 0.58 0.58 75 1007.1
20260510022441 15 219 9.7 19.3 0.00 0.58 0.58 75 1006.9
20260510021942 15 216 9.7 19.3 0.00 0.58 0.58 75 1006.7
20260510021441 15 196 9.7 20.9 0.00 0.58 0.58 75 1006.6
20260510020941 15 224 12.9 20.9 0.00 0.58 0.58 75 1006.6
20260510020710 15 210 9.7 19.3 0.00 0.58 0.58 75 1006.6
20260510015941 15 216 11.3 19.3 0.00 0.58 0.58 75 1006.5
20260510015441 15 213 12.9 17.7 0.00 0.58 0.58 75 1006.4
20260510014941 15 204 11.3 16.1 0.00 0.58 0.58 74 1006.4
20260510014440 15 202 9.7 11.3 0.00 0.58 0.58 74 1006.5
20260510013941 15 210 6.4 9.7 0.00 0.58 0.58 73 1006.4
20260510013442 15 216 6.4 9.7 0.00 0.58 0.58 73 1006.4
20260510012940 15 204 6.4 8.0 0.00 0.58 0.58 73 1006.4
20260510012440 15 206 4.8 8.0 0.00 0.58 0.58 72 1006.3
20260510011939 15 206 4.8 8.0 0.00 0.58 0.58 71 1006.3
20260510011440 15 206 4.8 11.3 0.00 0.58 0.58 71 1006.2
20260510011159 16 204 6.4 11.3 0.00 0.58 0.58 71 1006.1
20260510005941 16 203 8.0 11.3 0.00 0.58 0.58 70 1006.0
20260510005440 16 206 8.0 9.7 0.00 0.58 0.58 70 1005.9
20260510004939 16 203 6.4 9.7 0.00 0.58 0.58 69 1006.0
20260510004657 16 209 6.4 9.7 0.00 0.58 0.58 69 1005.9
20260510004159 16 214 4.8 11.3 0.00 0.58 0.58 69 1005.7
20260510003440 16 214 6.4 11.3 0.00 0.58 0.58 68 1005.7
20260510002439 17 206 9.7 11.3 0.00 0.58 0.58 67 1005.5
20260510001939 17 216 8.0 16.1 0.00 0.58 0.58 66 1005.6
20260510001439 17 210 9.7 16.1 0.00 0.58 0.58 66 1005.6
20260510001202 17 209 9.7 16.1 0.00 0.58 0.58 65 1005.6
20260510000440 17 217 6.4 14.5 0.00 0.58 0.58 65 1005.6
20260509235938 17 221 9.7 14.5 0.00 0.58 0.58 64 1005.6
20260509235437 17 220 6.4 19.3 0.00 0.58 0.58 64 1005.5
20260509234938 18 220 8.0 22.5 0.00 0.58 0.58 64 1005.5
20260509234438 18 235 12.9 22.5 0.00 0.58 0.58 63 1005.4
20260509233938 18 217 9.7 16.1 0.00 0.58 0.58 63 1005.3
20260509233439 18 199 9.7 20.9 0.00 0.58 0.58 63 1005.3
20260509232938 18 221 11.3 20.9 0.00 0.58 0.58 61 1005.2
20260509232438 18 200 11.3 20.9 0.00 0.58 0.58 61 1005.3
20260509231939 18 204 11.3 30.6 0.00 0.58 0.58 61 1005.2
20260509231436 18 233 19.3 30.6 0.00 0.58 0.58 60 1005.2
20260509231200 18 214 16.1 25.7 0.00 0.58 0.58 60 1005.1
20260509230437 18 213 16.1 25.7 0.00 0.58 0.58 59 1005.1
20260509230157 18 219 16.1 27.4 0.00 0.58 0.58 60 1005.2
20260509225438 18 178 17.7 27.4 0.00 0.58 0.58 59 1005.1
20260509224937 18 204 12.9 25.7 0.00 0.58 0.58 60 1005.2
20260509224437 18 190 16.1 24.1 0.00 0.58 0.58 59 1005.2
20260509223938 19 213 16.1 24.1 0.00 0.58 0.58 59 1005.3
20260509223437 18 226 14.5 25.7 0.00 0.58 0.58 58 1005.2
20260509222937 19 237 14.5 25.7 0.00 0.58 0.58 59 1005.3
20260509222438 18 240 16.1 29.0 0.00 0.58 0.58 58 1005.3
20260509221937 18 252 19.3 29.0 0.00 0.58 0.58 58 1005.4
20260509221659 19 238 19.3 29.0 0.00 0.58 0.58 58 1005.5
20260509220937 18 206 17.7 29.0 0.00 0.58 0.58 58 1005.4
20260509220659 19 234 16.1 25.7 0.00 0.58 0.58 59 1005.5
20260509215937 19 217 16.1 27.4 0.00 0.58 0.58 59 1005.5
20260509215700 19 238 17.7 27.4 0.00 0.58 0.58 58 1005.5
20260509214937 19 257 16.1 24.1 0.00 0.58 0.58 57 1005.5
20260509214436 18 238 12.9 22.5 0.00 0.58 0.58 58 1005.5
20260509213936 18 237 14.5 30.6 0.00 0.58 0.58 58 1005.5
20260509213437 18 243 19.3 30.6 0.00 0.58 0.58 57 1005.5
20260509212936 18 243 12.9 22.5 0.00 0.58 0.58 57 1005.5
20260509212436 18 212 14.5 24.1 0.00 0.58 0.58 60 1005.4
20260509211936 18 195 9.7 24.1 0.00 0.58 0.58 59 1005.5
20260509211437 18 244 14.5 32.2 0.00 0.58 0.58 59 1005.6
20260509210936 18 237 14.5 32.2 0.00 0.58 0.58 61 1005.6
20260509210701 18 200 16.1 24.1 0.00 0.58 0.58 59 1005.6
20260509205936 19 237 12.9 24.1 0.00 0.58 0.58 59 1005.7
20260509205437 18 241 9.7 16.1 0.00 0.58 0.58 59 1005.7
20260509204936 18 285 9.7 22.5 0.00 0.58 0.58 60 1005.6
20260509204435 18 240 16.1 22.5 0.00 0.58 0.58 60 1005.7
20260509203935 18 183 11.3 24.1 0.00 0.58 0.58 61 1005.7
20260509203436 18 234 12.9 24.1 0.00 0.58 0.58 60 1005.7
20260509202935 18 233 9.7 27.4 0.00 0.58 0.58 60 1005.9
20260509202435 18 228 17.7 27.4 0.00 0.58 0.58 62 1005.9
20260509201935 18 266 9.7 24.1 0.00 0.58 0.58 63 1006.0
20260509201435 18 251 12.9 24.1 0.00 0.58 0.58 61 1006.1
20260509200935 18 223 16.1 22.5 0.00 0.58 0.58 61 1006.1
20260509200434 18 240 12.9 24.1 0.00 0.58 0.58 64 1006.2
20260509195935 18 230 11.3 25.7 0.00 0.58 0.58 65 1006.2
20260509195434 18 235 14.5 25.7 0.00 0.58 0.58 65 1006.5
20260509194934 18 238 19.3 24.1 0.00 0.58 0.58 63 1006.3
20260509194434 18 235 12.9 24.1 0.00 0.58 0.58 64 1006.4
20260509193934 18 275 8.0 25.7 0.00 0.58 0.58 64 1006.2
20260509193435 18 213 14.5 25.7 0.00 0.58 0.58 67 1006.4
20260509192934 18 212 17.7 24.1 0.00 0.58 0.58 67 1006.4
20260509192701 17 230 14.5 24.1 0.00 0.58 0.58 65 1006.4
20260509191934 17 268 11.3 22.5 0.00 0.58 0.58 65 1006.3
20260509191434 17 235 14.5 30.6 0.00 0.58 0.58 66 1006.5
20260509190932 17 250 20.9 30.6 0.00 0.58 0.58 66 1006.6
20260509190433 18 289 14.5 19.3 0.00 0.58 0.58 68 1006.5
20260509190158 17 272 9.7 27.4 0.00 0.58 0.58 67 1006.5
20260509185434 17 220 17.7 27.4 0.00 0.58 0.58 66 1006.6
20260509184933 17 247 14.5 25.7 0.00 0.58 0.58 67 1006.5
20260509184433 17 234 14.5 24.1 0.00 0.58 0.58 69 1006.7
20260509183934 17 226 11.3 29.0 0.00 0.58 0.58 70 1006.7
20260509183433 17 212 17.7 29.0 0.00 0.58 0.58 71 1006.7
20260509182935 17 206 16.1 24.1 0.00 0.58 0.58 72 1006.8
20260509182434 17 185 16.1 22.5 0.00 0.58 0.58 72 1006.8
20260509181933 17 202 12.9 24.1 0.00 0.58 0.58 73 1006.8
20260509181655 16 243 9.7 24.1 0.00 0.58 0.58 74 1006.9
20260509180933 16 199 14.5 24.1 0.00 0.58 0.58 72 1006.8
20260509180649 16 247 11.3 16.1 0.00 0.58 0.58 72 1006.9
20260509175933 16 279 9.7 24.1 0.00 0.58 0.58 74 1006.9
20260509175433 16 237 11.3 24.1 0.00 0.58 0.58 73 1006.9
20260509174932 16 219 14.5 24.1 0.00 0.58 0.58 74 1006.9
20260509174432 15 223 12.9 22.5 0.00 0.58 0.58 73 1007.0
20260509173932 16 244 14.5 25.7 0.00 0.58 0.58 73 1006.9
20260509173654 15 252 17.7 25.7 0.00 0.58 0.58 74 1007.0
20260509173201 15 261 12.9 22.5 0.00 0.58 0.58 76 1006.9
20260509172654 15 219 17.7 29.0 0.00 0.58 0.58 76 1006.9
20260509171932 15 241 17.7 29.0 0.00 0.58 0.58 75 1006.9
20260509171432 15 248 19.3 27.4 0.00 0.58 0.58 76 1006.9
20260509170932 15 231 9.7 29.0 0.00 0.58 0.58 78 1007.0
20260509170432 15 241 19.3 29.0 0.00 0.58 0.58 77 1007.0
20260509165932 15 221 11.3 25.7 0.00 0.58 0.58 81 1006.8
20260509165432 14 221 19.3 25.7 0.03 0.58 0.58 80 1006.9
20260509164931 14 255 8.0 24.1 0.03 0.58 0.58 82 1006.9
20260509164431 14 226 16.1 24.1 0.03 0.58 0.58 82 1006.9
20260509164153 14 247 9.7 27.4 0.03 0.58 0.58 84 1006.9
20260509163431 14 233 14.5 27.4 0.03 0.58 0.58 86 1006.8
20260509162432 13 238 14.5 25.7 0.03 0.58 0.58 88 1006.7
20260509161931 13 202 11.3 22.5 0.03 0.58 0.58 89 1006.8
20260509161431 13 216 16.1 22.5 0.03 0.58 0.58 91 1006.7
20260509160929 13 203 14.5 22.5 0.03 0.58 0.58 92 1006.7
20260509160430 12 244 16.1 20.9 0.03 0.58 0.58 92 1006.8
20260509155930 12 210 12.9 20.9 0.03 0.58 0.58 93 1006.7
20260509155430 12 209 11.3 20.9 0.00 0.56 0.56 92 1006.8
20260509154931 11 210 12.9 20.9 0.00 0.56 0.56 92 1006.7
20260509154430 11 230 11.3 20.9 0.00 0.56 0.56 93 1006.6
20260509153931 11 207 9.7 17.7 0.00 0.56 0.56 93 1006.6